• Join FlightAware (Why Join?)
  • Login
  • US Flag 
06:49AM EST


 

Airport Tracker/Info


-or-


 

Live Flight TrackerFlight Track Log ✈ N328SR ✈ 14-Oct-2013 ✈ KGON - KBTV

Flight Track Log - Related Links

Times and Time Zones

All times are in EDT time to prevent confusion due to time zone crossing. See the N328SR flight status page for this flight to view local times or setup timezone preferences in your user account.

Time Position Orientation Groundspeed Altitude Reporting Facility
EDT Latitude Longitude Course Direction KTS MPH feet Rate Location/Type
09:33AM 41.3619 -72.0500 336° Northwest 128 147 900  Level Boston Center
09:34AM 41.3994 -72.0719 336° Northwest 142 163 1,800 836 Climbing Boston Center
09:35AM 41.4411 -72.0883 344° North 162 186 2,600 708 Climbing Boston Center
09:37AM 41.5100 -72.1103 347° North 159 183 3,700 638 Climbing Boston Center
09:38AM 41.5456 -72.1211 347° North 154 177 4,300 639 Climbing Boston Center
09:39AM 41.5892 -72.1347 347° North 144 166 5,000 634 Climbing Boston Center
09:40AM 41.6247 -72.1486 344° North 144 166 5,600 655 Climbing Boston Center
09:41AM 41.6644 -72.1622 346° North 144 166 6,300 610 Climbing Boston Center
09:42AM 41.6978 -72.1731 346° North 144 166 6,800 605 Climbing Boston Center
09:43AM 41.7394 -72.1869 346° North 144 166 7,500 605 Climbing Boston Center
09:44AM 41.7728 -72.1981 346° North 144 166 8,000 545 Climbing Boston Center
09:45AM 41.8144 -72.2172 341° North 144 166 8,600 590 Climbing Boston Center
09:46AM 41.8500 -72.2283 347° North 144 166 9,200 655 Climbing Boston Center
09:47AM 41.8939 -72.2422 347° North 150 173 9,900 655 Climbing Boston Center
09:48AM 41.9314 -72.2558 345° North 150 173 10,500 590 Climbing Boston Center
09:49AM 41.9772 -72.2697 347° North 150 173 11,100 605 Climbing Boston Center
09:50AM 42.0147 -72.2808 348° North 150 173 11,700 400 Climbing Boston Center
09:51AM 42.0628 -72.2975 346° North 150 173 11,900 98 Climbing Boston Center
09:52AM 42.1064 -72.3142 344° North 168 193 11,900  Level Boston Center
09:53AM 42.1606 -72.3336 345° North 173 199 11,900  Level Boston Center
09:54AM 42.2108 -72.3503 346° North 179 206 11,900  Level Boston Center
09:55AM 42.2608 -72.3644 348° North 179 206 11,900  Level Boston Center
09:56AM 42.3128 -72.3811 347° North 184 212 11,900  Level Boston Center
09:57AM 42.3628 -72.4036 342° North 184 212 11,900  Level Boston Center
09:58AM 42.4128 -72.4203 346° North 184 212 11,900  Level Boston Center
09:59AM 42.4631 -72.4344 348° North 184 212 11,900  Level Boston Center
10:00AM 42.5108 -72.4514 345° North 184 212 11,900  Level Boston Center
10:01AM 42.5608 -72.4683 346° North 184 212 11,900  Level Boston Center
10:02AM 42.6108 -72.4853 346° North 184 212 11,900  Level Boston Center
10:03AM 42.6608 -72.5050 344° North 184 212 11,900  Level Boston Center
10:04AM 42.7108 -72.5219 346° North 184 212 11,900  Level Boston Center
10:05AM 42.7608 -72.5392 346° North 184 212 11,900  Level Boston Center
10:06AM 42.8108 -72.5561 346° North 184 212 11,900  Level Boston Center
10:07AM 42.8608 -72.5761 344° North 184 212 11,900  Level Boston Center
10:08AM 42.9131 -72.5931 347° North 184 212 11,900  Level Boston Center
10:09AM 42.9608 -72.6103 345° North 184 212 11,900  Level Boston Center
10:10AM 43.0108 -72.6275 346° North 184 212 11,900  Level Boston Center
10:11AM 43.0608 -72.6447 346° North 184 212 11,900  Level Boston Center
10:12AM 43.1089 -72.6619 345° North 184 212 11,900  Level Boston Center
10:13AM 43.1589 -72.6792 346° North 184 212 11,900 -50 Level Boston Center
10:14AM 43.2086 -72.6964 346° North 184 212 11,800  Descending Boston Center
10:15AM 43.2586 -72.7139 346° North 184 212 11,900 50 Climbing Boston Center
10:16AM 43.3067 -72.7311 345° North 184 212 11,900  Level Boston Center
10:17AM 43.3567 -72.7514 344° North 184 212 11,900 -50 Level Boston Center
10:18AM 43.4044 -72.7658 348° North 184 212 11,800 -50 Descending Boston Center
10:19AM 43.4544 -72.7861 344° North 184 212 11,800  Level Boston Center
10:20AM 43.5022 -72.8008 347° North 184 212 11,800  Level Boston Center
10:21AM 43.5461 -72.8181 344° North 179 206 11,800  Level Boston Center
10:22AM 43.5939 -72.8356 345° North 179 206 11,800 50 Level Boston Center
10:23AM 43.6439 -72.8533 346° North 179 206 11,900  Climbing Boston Center
10:24AM 43.6958 -72.8708 346° North 179 206 11,800 -51 Descending Boston Center
10:25AM 43.7417 -72.8883 345° North 174 200 11,800 50 Level Boston Center
10:26AM 43.7917 -72.9061 346° North 174 200 11,900 50 Climbing Boston Center
10:27AM 43.8394 -72.9267 343° North 174 200 11,900 -250 Level Boston Center
10:28AM 43.8894 -72.9414 348° North 174 200 11,400 -500 Descending Boston Center
10:29AM 43.9372 -72.9592 345° North 189 217 10,900 -450 Descending Boston Center
10:30AM 43.9892 -72.9767 346° North 189 217 10,500 -446 Descending Boston Center
10:31AM 44.0433 -72.9858 353° North 189 217 10,000 -496 Descending Boston Center
10:32AM 44.0975 -72.9922 355° North 194 223 9,500 -496 Descending Boston Center
10:33AM 44.1517 -73.0014 353° North 194 223 9,000 -458 Descending Boston Center
10:34AM 44.2036 -73.0106 353° North 194 223 8,600 -458 Descending Boston Center
10:35AM 44.2556 -73.0286 346° North 194 223 8,100 -496 Descending Boston Center
10:36AM 44.2950 -73.0811 316° Northwest 177 204 7,600 -545 Descending Boston Center
10:37AM 44.3258 -73.1336 309° West 177 204 7,000 -694 Descending Boston Center
10:38AM 44.3589 -73.1892 310° West 188 216 6,200 -814 Descending Boston Center
10:39AM 44.3919 -73.2447 310° West 188 216 5,400 -828 Descending Boston Center
10:41AM 44.4556 -73.1719 340° North  Level Estimated
10:48AM 44.4667 -73.1500 340° North  Level FlightAware Approximate
10:49AM 44.4719 -73.1533 340° North  Level Estimated
10:50AM 44.4667 -73.1500 340° North  Level FlightAware Approximate
10:51AM 44.4719 -73.1533 340° North  Level Estimated